| time (UTC) | temp C | wind direction | speed KPH | gust KPH | rain 1hr cm | rain 24hr cm | rain mn cm | humidity % | barometer mb |
| 20260508110059 | 6 | 0 | 0.0 | 0.0 | 0.00 | 0.38 | 0.03 | 98 | 1016.9 |
| 20260508105545 | 6 | 0 | 0.0 | 0.0 | 0.00 | 0.38 | 0.03 | 98 | 1016.9 |
| 20260508105044 | 6 | 0 | 0.0 | 0.0 | 0.00 | 0.38 | 0.03 | 97 | 1016.7 |
| 20260508104552 | 6 | 0 | 0.0 | 0.0 | 0.00 | 0.38 | 0.03 | 97 | 1016.3 |
| 20260508104043 | 6 | 0 | 0.0 | 0.0 | 0.00 | 0.38 | 0.03 | 97 | 1016.4 |
| 20260508103543 | 6 | 0 | 0.0 | 0.0 | 0.00 | 0.38 | 0.03 | 98 | 1016.2 |
| 20260508103052 | 6 | 0 | 0.0 | 0.0 | 0.00 | 0.38 | 0.03 | 97 | 1016.1 |
| 20260508102544 | 6 | 0 | 0.0 | 0.0 | 0.00 | 0.38 | 0.03 | 98 | 1016.0 |
| 20260508102044 | 6 | 0 | 0.0 | 0.0 | 0.00 | 0.38 | 0.03 | 97 | 1015.9 |
| 20260508101553 | 6 | 0 | 0.0 | 0.0 | 0.03 | 0.38 | 0.03 | 97 | 1016.0 |
| 20260508101043 | 6 | 0 | 0.0 | 0.0 | 0.03 | 0.38 | 0.03 | 98 | 1016.0 |
| 20260508100543 | 6 | 0 | 0.0 | 0.0 | 0.03 | 0.38 | 0.03 | 97 | 1015.9 |
| 20260508100051 | 6 | 0 | 0.0 | 0.0 | 0.03 | 0.38 | 0.03 | 98 | 1016.0 |
| 20260508095544 | 6 | 0 | 0.0 | 0.0 | 0.03 | 0.41 | 0.03 | 97 | 1015.9 |
| 20260508095044 | 7 | 0 | 0.0 | 0.0 | 0.03 | 0.41 | 0.03 | 97 | 1015.8 |
| 20260508094555 | 7 | 0 | 0.0 | 0.0 | 0.03 | 0.41 | 0.03 | 97 | 1015.7 |
| 20260508094044 | 7 | 0 | 0.0 | 0.0 | 0.03 | 0.41 | 0.03 | 98 | 1015.6 |
| 20260508093543 | 7 | 0 | 0.0 | 0.0 | 0.03 | 0.41 | 0.03 | 98 | 1015.6 |
| 20260508093056 | 7 | 0 | 0.0 | 0.0 | 0.03 | 0.41 | 0.03 | 98 | 1015.6 |
| 20260508092542 | 7 | 0 | 0.0 | 0.0 | 0.03 | 0.41 | 0.03 | 97 | 1015.5 |
| 20260508092043 | 7 | 0 | 0.0 | 0.0 | 0.03 | 0.41 | 0.03 | 97 | 1015.6 |
| 20260508091552 | 7 | 0 | 0.0 | 0.0 | 0.00 | 0.38 | 0.00 | 97 | 1015.5 |
| 20260508091046 | 7 | 0 | 0.0 | 0.0 | 0.00 | 0.38 | 0.00 | 98 | 1015.4 |
| 20260508090543 | 7 | 0 | 0.0 | 0.0 | 0.00 | 0.38 | 0.00 | 97 | 1015.4 |
| 20260508090051 | 7 | 0 | 0.0 | 0.0 | 0.00 | 0.38 | 0.00 | 97 | 1015.5 |
| 20260508085542 | 7 | 0 | 0.0 | 0.0 | 0.00 | 0.41 | 0.00 | 97 | 1015.5 |
| 20260508085124 | 7 | 0 | 0.0 | 0.0 | 0.00 | 0.41 | 0.00 | 97 | 1015.5 |
| 20260508084551 | 7 | 0 | 0.0 | 0.0 | 0.00 | 0.41 | 0.00 | 97 | 1015.4 |
| 20260508084043 | 7 | 0 | 0.0 | 0.0 | 0.00 | 0.41 | 0.00 | 97 | 1015.5 |
| 20260508083545 | 7 | 0 | 0.0 | 0.0 | 0.00 | 0.41 | 0.00 | 97 | 1015.5 |
| 20260508083107 | 7 | 0 | 0.0 | 0.0 | 0.00 | 0.41 | 0.00 | 97 | 1015.6 |
| 20260508082545 | 7 | 0 | 0.0 | 0.0 | 0.00 | 0.41 | 0.00 | 97 | 1015.3 |
| 20260508082042 | 7 | 0 | 0.0 | 0.0 | 0.00 | 0.41 | 0.00 | 97 | 1015.4 |
| 20260508081554 | 7 | 0 | 0.0 | 0.0 | 0.00 | 0.41 | 0.00 | 97 | 1015.4 |
| 20260508081043 | 7 | 0 | 0.0 | 0.0 | 0.00 | 0.41 | 0.00 | 97 | 1015.3 |
| 20260508080544 | 7 | 0 | 0.0 | 0.0 | 0.00 | 0.41 | 0.00 | 97 | 1015.2 |
| 20260508080051 | 8 | 0 | 0.0 | 0.0 | 0.00 | 0.41 | 0.00 | 97 | 1015.1 |
| 20260508075543 | 8 | 0 | 0.0 | 0.0 | 0.00 | 0.46 | 0.00 | 97 | 1015.3 |
| 20260508075043 | 8 | 0 | 0.0 | 0.0 | 0.00 | 0.46 | 0.00 | 97 | 1015.2 |
| 20260508074551 | 8 | 0 | 0.0 | 0.0 | 0.00 | 0.46 | 0.00 | 97 | 1015.0 |
| 20260508074044 | 8 | 0 | 0.0 | 0.0 | 0.00 | 0.46 | 0.00 | 97 | 1015.0 |
| 20260508073543 | 8 | 0 | 0.0 | 0.0 | 0.00 | 0.46 | 0.00 | 97 | 1014.9 |
| 20260508073050 | 8 | 0 | 0.0 | 0.0 | 0.00 | 0.46 | 0.00 | 97 | 1014.9 |
| 20260508072542 | 8 | 0 | 0.0 | 0.0 | 0.00 | 0.46 | 0.00 | 97 | 1014.8 |
| 20260508072043 | 8 | 0 | 0.0 | 0.0 | 0.00 | 0.46 | 0.00 | 97 | 1015.0 |
| 20260508071552 | 8 | 0 | 0.0 | 0.0 | 0.00 | 0.46 | 0.00 | 97 | 1014.9 |
| 20260508071043 | 8 | 0 | 0.0 | 0.0 | 0.00 | 0.46 | 0.00 | 97 | 1014.7 |
| 20260508070544 | 8 | 0 | 0.0 | 0.0 | 0.00 | 0.46 | 0.00 | 97 | 1014.7 |
| 20260508070057 | 8 | 0 | 0.0 | 0.0 | 0.00 | 0.46 | 0.00 | 97 | 1014.6 |
| 20260508065543 | 8 | 0 | 0.0 | 0.0 | 0.00 | 0.56 | 0.00 | 97 | 1014.5 |
| 20260508065042 | 8 | 0 | 0.0 | 0.0 | 0.00 | 0.56 | 0.00 | 97 | 1014.5 |
| 20260508064559 | 8 | 0 | 0.0 | 0.0 | 0.00 | 0.56 | 0.00 | 97 | 1014.6 |
| 20260508064043 | 8 | 0 | 0.0 | 0.0 | 0.00 | 0.56 | 0.00 | 97 | 1014.6 |
| 20260508063543 | 8 | 0 | 0.0 | 0.0 | 0.00 | 0.56 | 0.00 | 97 | 1014.6 |
| 20260508063052 | 8 | 0 | 0.0 | 0.0 | 0.00 | 0.56 | 0.00 | 97 | 1014.6 |
| 20260508062543 | 8 | 0 | 0.0 | 0.0 | 0.00 | 0.56 | 0.00 | 97 | 1014.6 |
| 20260508062043 | 9 | 0 | 0.0 | 0.0 | 0.00 | 0.56 | 0.00 | 97 | 1014.6 |
| 20260508061556 | 9 | 0 | 0.0 | 0.0 | 0.00 | 0.56 | 0.00 | 97 | 1014.7 |
| 20260508061043 | 9 | 0 | 0.0 | 0.0 | 0.00 | 0.56 | 0.00 | 97 | 1014.7 |
| 20260508060543 | 9 | 0 | 0.0 | 1.6 | 0.00 | 0.56 | 0.00 | 97 | 1014.7 |
| 20260508060054 | 9 | 0 | 0.0 | 1.6 | 0.00 | 0.56 | 0.00 | 97 | 1014.8 |
| 20260508055542 | 9 | 0 | 0.0 | 1.6 | 0.00 | 0.69 | 0.00 | 97 | 1014.7 |
| 20260508055042 | 9 | 0 | 0.0 | 1.6 | 0.00 | 0.69 | 0.00 | 97 | 1014.7 |
| 20260508054552 | 9 | 0 | 0.0 | 1.6 | 0.00 | 0.69 | 0.00 | 97 | 1014.6 |
| 20260508054045 | 9 | 0 | 0.0 | 0.0 | 0.00 | 0.69 | 0.00 | 97 | 1014.6 |
| 20260508053542 | 9 | 0 | 0.0 | 0.0 | 0.00 | 0.69 | 0.00 | 97 | 1014.6 |
| 20260508053055 | 9 | 0 | 0.0 | 0.0 | 0.00 | 0.69 | 0.00 | 97 | 1014.6 |
| 20260508052542 | 9 | 0 | 0.0 | 1.6 | 0.00 | 0.69 | 0.00 | 97 | 1014.7 |
| 20260508052042 | 10 | 0 | 0.0 | 1.6 | 0.00 | 0.69 | 0.00 | 97 | 1014.7 |
| 20260508051556 | 10 | 0 | 0.0 | 0.0 | 0.00 | 0.69 | 0.00 | 97 | 1014.8 |
| 20260508051042 | 10 | 0 | 0.0 | 0.0 | 0.00 | 0.69 | 0.00 | 97 | 1014.6 |
| 20260508050543 | 10 | 0 | 0.0 | 0.0 | 0.00 | 0.69 | 0.00 | 97 | 1014.6 |
| 20260508050052 | 10 | 0 | 0.0 | 0.0 | 0.00 | 0.69 | 0.00 | 97 | 1014.6 |
| 20260508045544 | 10 | 0 | 0.0 | 0.0 | 0.00 | 0.69 | 0.00 | 97 | 1014.6 |
| 20260508045042 | 10 | 0 | 0.0 | 0.0 | 0.00 | 0.69 | 0.00 | 97 | 1014.6 |
| 20260508044554 | 10 | 0 | 0.0 | 0.0 | 0.00 | 0.69 | 0.00 | 97 | 1014.5 |
| 20260508044045 | 10 | 0 | 0.0 | 0.0 | 0.00 | 0.69 | 0.00 | 97 | 1014.3 |
| 20260508043542 | 10 | 0 | 0.0 | 0.0 | 0.00 | 0.69 | 0.00 | 97 | 1014.3 |
| 20260508043107 | 10 | 0 | 0.0 | 0.0 | 0.00 | 0.69 | 0.00 | 97 | 1014.2 |
| 20260508042543 | 10 | 0 | 0.0 | 0.0 | 0.00 | 0.69 | 0.00 | 97 | 1014.3 |
| 20260508042042 | 10 | 0 | 0.0 | 0.0 | 0.00 | 0.69 | 0.00 | 97 | 1014.3 |
| 20260508041555 | 10 | 0 | 0.0 | 0.0 | 0.00 | 0.69 | 0.00 | 97 | 1014.3 |
| 20260508041042 | 10 | 0 | 0.0 | 0.0 | 0.00 | 0.69 | 0.00 | 97 | 1014.1 |
| 20260508040543 | 10 | 0 | 0.0 | 0.0 | 0.00 | 0.69 | 0.00 | 97 | 1014.2 |
| 20260508040057 | 10 | 0 | 0.0 | 0.0 | 0.00 | 0.69 | 0.00 | 97 | 1014.2 |
| 20260508035543 | 10 | 0 | 0.0 | 0.0 | 0.00 | 1.19 | 0.69 | 97 | 1014.1 |
| 20260508035043 | 10 | 0 | 0.0 | 0.0 | 0.00 | 1.19 | 0.69 | 97 | 1013.9 |
| 20260508034556 | 10 | 0 | 0.0 | 0.0 | 0.00 | 1.19 | 0.69 | 97 | 1014.1 |
| 20260508034042 | 10 | 0 | 0.0 | 0.0 | 0.00 | 1.19 | 0.69 | 97 | 1014.1 |
| 20260508033543 | 10 | 0 | 0.0 | 0.0 | 0.00 | 1.19 | 0.69 | 97 | 1014.2 |
| 20260508033054 | 10 | 0 | 0.0 | 0.0 | 0.00 | 1.19 | 0.69 | 97 | 1014.2 |
| 20260508032543 | 10 | 0 | 0.0 | 0.0 | 0.00 | 1.19 | 0.69 | 97 | 1014.1 |
| 20260508032045 | 10 | 0 | 0.0 | 0.0 | 0.00 | 1.19 | 0.69 | 97 | 1014.1 |
| 20260508031552 | 10 | 0 | 0.0 | 0.0 | 0.00 | 1.19 | 0.69 | 97 | 1014.0 |
| 20260508031042 | 11 | 0 | 0.0 | 0.0 | 0.00 | 1.19 | 0.69 | 97 | 1013.9 |
| 20260508030543 | 10 | 0 | 0.0 | 0.0 | 0.00 | 1.19 | 0.69 | 97 | 1013.8 |
| 20260508030049 | 10 | 0 | 0.0 | 0.0 | 0.00 | 1.19 | 0.69 | 97 | 1013.7 |
| 20260508025543 | 11 | 0 | 0.0 | 0.0 | 0.00 | 1.37 | 0.69 | 97 | 1013.7 |
| 20260508025043 | 11 | 0 | 0.0 | 0.0 | 0.00 | 1.37 | 0.69 | 97 | 1013.6 |
| 20260508024552 | 11 | 0 | 0.0 | 0.0 | 0.00 | 1.37 | 0.69 | 97 | 1013.8 |
| 20260508024043 | 11 | 0 | 0.0 | 0.0 | 0.00 | 1.37 | 0.69 | 97 | 1013.7 |
| 20260508023544 | 11 | 0 | 0.0 | 0.0 | 0.00 | 1.37 | 0.69 | 96 | 1013.6 |
| 20260508023055 | 11 | 0 | 0.0 | 0.0 | 0.00 | 1.37 | 0.69 | 96 | 1013.5 |
| 20260508022543 | 11 | 0 | 0.0 | 0.0 | 0.00 | 1.37 | 0.69 | 96 | 1013.6 |
| 20260508022043 | 11 | 0 | 0.0 | 0.0 | 0.00 | 1.37 | 0.69 | 96 | 1013.5 |
| 20260508021553 | 11 | 0 | 0.0 | 0.0 | 0.00 | 1.37 | 0.69 | 96 | 1013.5 |
| 20260508021042 | 11 | 0 | 0.0 | 0.0 | 0.00 | 1.37 | 0.69 | 96 | 1013.4 |
| 20260508020545 | 11 | 0 | 0.0 | 0.0 | 0.00 | 1.37 | 0.69 | 96 | 1013.3 |
| 20260508020053 | 11 | 0 | 0.0 | 0.0 | 0.00 | 1.37 | 0.69 | 96 | 1013.1 |
| 20260508015542 | 11 | 0 | 0.0 | 0.0 | 0.00 | 1.45 | 0.69 | 96 | 1013.2 |
| 20260508015046 | 11 | 0 | 0.0 | 0.0 | 0.00 | 1.45 | 0.69 | 96 | 1013.2 |
| 20260508014548 | 11 | 0 | 0.0 | 0.0 | 0.00 | 1.45 | 0.69 | 96 | 1013.0 |
| 20260508014042 | 11 | 0 | 0.0 | 1.6 | 0.00 | 1.45 | 0.69 | 96 | 1012.9 |
| 20260508013546 | 11 | 0 | 0.0 | 1.6 | 0.00 | 1.45 | 0.69 | 96 | 1012.8 |
| 20260508013053 | 11 | 0 | 0.0 | 0.0 | 0.00 | 1.45 | 0.69 | 96 | 1012.6 |
| 20260508012543 | 12 | 0 | 0.0 | 3.2 | 0.00 | 1.45 | 0.69 | 96 | 1012.7 |
| 20260508012043 | 12 | 0 | 0.0 | 3.2 | 0.00 | 1.45 | 0.69 | 96 | 1012.5 |
| 20260508011552 | 12 | 0 | 1.6 | 3.2 | 0.00 | 1.45 | 0.69 | 96 | 1012.4 |
| 20260508011042 | 12 | 0 | 0.0 | 0.0 | 0.00 | 1.45 | 0.69 | 95 | 1012.1 |
| 20260508010542 | 12 | 0 | 0.0 | 0.0 | 0.00 | 1.45 | 0.69 | 95 | 1012.1 |
| 20260508010052 | 12 | 0 | 0.0 | 1.6 | 0.00 | 1.45 | 0.69 | 95 | 1012.0 |
| 20260508005542 | 12 | 0 | 0.0 | 1.6 | 0.00 | 1.47 | 0.69 | 95 | 1011.9 |
| 20260508005044 | 12 | 0 | 0.0 | 3.2 | 0.00 | 1.47 | 0.69 | 95 | 1011.8 |
| 20260508004549 | 12 | 0 | 0.0 | 4.8 | 0.00 | 1.47 | 0.69 | 95 | 1011.8 |
| 20260508004042 | 12 | 0 | 0.0 | 4.8 | 0.00 | 1.47 | 0.69 | 95 | 1011.7 |
| 20260508003543 | 13 | 86 | 1.6 | 6.4 | 0.00 | 1.47 | 0.69 | 94 | 1011.6 |
| 20260508003052 | 13 | 84 | 0.0 | 6.4 | 0.00 | 1.47 | 0.69 | 94 | 1011.7 |
| 20260508002542 | 13 | 0 | 1.6 | 6.4 | 0.00 | 1.47 | 0.69 | 94 | 1011.5 |
| 20260508002043 | 13 | 34 | 0.0 | 4.8 | 0.00 | 1.47 | 0.69 | 94 | 1011.4 |
| 20260508001548 | 13 | 34 | 0.0 | 4.8 | 0.00 | 1.47 | 0.69 | 94 | 1011.3 |
| 20260508001042 | 13 | 0 | 0.0 | 4.8 | 0.00 | 1.47 | 0.69 | 94 | 1011.4 |
| 20260508000542 | 13 | 0 | 0.0 | 4.8 | 0.00 | 1.47 | 0.69 | 94 | 1011.3 |
| 20260508000051 | 13 | 71 | 0.0 | 4.8 | 0.00 | 1.47 | 0.69 | 93 | 1011.4 |
| 20260507235542 | 13 | 65 | 1.6 | 4.8 | 0.00 | 1.47 | 0.69 | 93 | 1011.2 |
| 20260507235042 | 13 | 67 | 0.0 | 3.2 | 0.00 | 1.47 | 0.69 | 93 | 1011.2 |
| 20260507234550 | 13 | 0 | 0.0 | 8.0 | 0.00 | 1.47 | 0.69 | 93 | 1011.2 |
| 20260507234042 | 13 | 22 | 1.6 | 8.0 | 0.00 | 1.47 | 0.69 | 93 | 1011.2 |
| 20260507233545 | 13 | 50 | 1.6 | 8.0 | 0.00 | 1.47 | 0.69 | 93 | 1011.2 |
| 20260507233050 | 13 | 0 | 1.6 | 4.8 | 0.00 | 1.47 | 0.69 | 93 | 1011.1 |
| 20260507232542 | 14 | 0 | 0.0 | 3.2 | 0.00 | 1.47 | 0.69 | 93 | 1011.1 |
| 20260507232042 | 13 | 0 | 0.0 | 3.2 | 0.03 | 1.47 | 0.69 | 93 | 1011.0 |
| 20260507231554 | 13 | 0 | 0.0 | 3.2 | 0.03 | 1.47 | 0.69 | 93 | 1010.8 |
| 20260507231042 | 13 | 109 | 0.0 | 9.7 | 0.03 | 1.47 | 0.69 | 93 | 1010.6 |
| 20260507230543 | 14 | 114 | 3.2 | 9.7 | 0.03 | 1.47 | 0.69 | 93 | 1010.6 |
| 20260507230051 | 14 | 124 | 0.0 | 4.8 | 0.03 | 1.47 | 0.69 | 92 | 1010.7 |
| 20260507225544 | 14 | 80 | 0.0 | 4.8 | 0.03 | 1.47 | 0.69 | 92 | 1010.7 |
| 20260507225046 | 14 | 0 | 1.6 | 11.3 | 0.03 | 1.47 | 0.69 | 93 | 1010.6 |
| 20260507224549 | 14 | 66 | 0.0 | 11.3 | 0.03 | 1.47 | 0.69 | 93 | 1010.2 |
| 20260507224045 | 14 | 88 | 3.2 | 12.9 | 0.03 | 1.47 | 0.69 | 91 | 1010.4 |
| 20260507223542 | 14 | 113 | 3.2 | 12.9 | 0.03 | 1.47 | 0.69 | 91 | 1010.5 |
| 20260507223051 | 14 | 76 | 3.2 | 9.7 | 0.03 | 1.47 | 0.69 | 91 | 1010.3 |
| 20260507222542 | 14 | 85 | 1.6 | 11.3 | 0.03 | 1.47 | 0.69 | 91 | 1009.9 |
| 20260507222042 | 14 | 0 | 3.2 | 14.5 | 0.00 | 1.45 | 0.66 | 89 | 1010.0 |
| 20260507221551 | 14 | 80 | 4.8 | 14.5 | 0.00 | 1.45 | 0.66 | 88 | 1009.7 |
| 20260507221044 | 14 | 49 | 4.8 | 20.9 | 0.00 | 1.45 | 0.66 | 87 | 1009.5 |
| 20260507220541 | 15 | 18 | 4.8 | 20.9 | 0.00 | 1.45 | 0.66 | 87 | 1009.6 |
| 20260507220046 | 15 | 89 | 6.4 | 19.3 | 0.00 | 1.45 | 0.66 | 87 | 1009.5 |
| 20260507215544 | 15 | 80 | 4.8 | 14.5 | 0.00 | 1.45 | 0.66 | 87 | 1009.6 |
| 20260507215042 | 15 | 75 | 1.6 | 9.7 | 0.00 | 1.45 | 0.66 | 87 | 1009.9 |
| 20260507214606 | 15 | 36 | 1.6 | 11.3 | 0.00 | 1.45 | 0.66 | 89 | 1009.8 |
| 20260507214042 | 15 | 71 | 3.2 | 14.5 | 0.00 | 1.45 | 0.66 | 86 | 1009.6 |
| 20260507213544 | 15 | 78 | 3.2 | 20.9 | 0.00 | 1.45 | 0.66 | 85 | 1009.3 |
| 20260507213058 | 15 | 84 | 6.4 | 20.9 | 0.00 | 1.45 | 0.66 | 86 | 1009.1 |
| 20260507212542 | 16 | 40 | 8.0 | 20.9 | 0.00 | 1.45 | 0.66 | 83 | 1009.3 |
| 20260507212045 | 16 | 68 | 4.8 | 19.3 | 0.00 | 1.45 | 0.66 | 83 | 1009.1 |
| 20260507211600 | 16 | 0 | 4.8 | 17.7 | 0.00 | 1.45 | 0.66 | 87 | 1009.0 |
| 20260507211043 | 16 | 146 | 4.8 | 17.7 | 0.00 | 1.45 | 0.66 | 86 | 1009.3 |
| 20260507210542 | 15 | 98 | 3.2 | 16.1 | 0.00 | 1.45 | 0.66 | 90 | 1009.2 |
| 20260507210052 | 15 | 81 | 4.8 | 16.1 | 0.00 | 1.45 | 0.66 | 89 | 1009.4 |
| 20260507205542 | 15 | 244 | 4.8 | 16.1 | 0.00 | 1.45 | 0.66 | 88 | 1009.1 |
| 20260507205043 | 15 | 36 | 6.4 | 19.3 | 0.00 | 1.45 | 0.66 | 87 | 1009.3 |
| 20260507204607 | 16 | 145 | 4.8 | 19.3 | 0.00 | 1.45 | 0.66 | 85 | 1009.2 |
| 20260507204046 | 16 | 83 | 4.8 | 17.7 | 0.00 | 1.45 | 0.66 | 87 | 1009.1 |
| 20260507203543 | 16 | 61 | 6.4 | 19.3 | 0.00 | 1.45 | 0.66 | 86 | 1008.9 |
| 20260507203056 | 16 | 46 | 9.7 | 19.3 | 0.00 | 1.45 | 0.66 | 86 | 1009.2 |
| 20260507202544 | 17 | 53 | 4.8 | 17.7 | 0.00 | 1.45 | 0.66 | 85 | 1009.1 |
| 20260507202044 | 17 | 115 | 4.8 | 17.7 | 0.00 | 1.45 | 0.66 | 85 | 1008.9 |
| 20260507201553 | 18 | 46 | 4.8 | 20.9 | 0.00 | 1.45 | 0.66 | 85 | 1009.0 |
| 20260507201043 | 19 | 101 | 6.4 | 20.9 | 0.00 | 1.45 | 0.66 | 82 | 1008.7 |
| 20260507200542 | 20 | 61 | 6.4 | 20.9 | 0.00 | 1.45 | 0.66 | 80 | 1008.5 |
| 20260507200054 | 21 | 17 | 1.6 | 8.0 | 0.00 | 1.45 | 0.66 | 83 | 1008.3 |
| 20260507195543 | 21 | 188 | 1.6 | 9.7 | 0.00 | 1.45 | 0.66 | 83 | 1007.8 |
| 20260507195043 | 21 | 0 | 1.6 | 9.7 | 0.00 | 1.45 | 0.66 | 83 | 1007.7 |
| 20260507194633 | 21 | 73 | 3.2 | 11.3 | 0.00 | 1.45 | 0.66 | 82 | 1007.7 |
| 20260507194042 | 21 | 67 | 3.2 | 14.5 | 0.00 | 1.45 | 0.66 | 81 | 1007.8 |
| 20260507193542 | 22 | 187 | 6.4 | 14.5 | 0.00 | 1.45 | 0.66 | 76 | 1007.9 |
| 20260507193053 | 23 | 23 | 1.6 | 12.9 | 0.00 | 1.45 | 0.66 | 70 | 1008.0 |
| 20260507192541 | 22 | 134 | 3.2 | 12.9 | 0.00 | 1.45 | 0.66 | 73 | 1007.9 |
| 20260507192042 | 23 | 284 | 8.0 | 12.9 | 0.00 | 1.45 | 0.66 | 70 | 1007.9 |
| 20260507191553 | 23 | 287 | 4.8 | 11.3 | 0.00 | 1.45 | 0.66 | 68 | 1008.0 |
| 20260507191041 | 23 | 182 | 1.6 | 9.7 | 0.00 | 1.45 | 0.66 | 68 | 1008.0 |
| 20260507190545 | 23 | 242 | 1.6 | 9.7 | 0.00 | 1.45 | 0.66 | 69 | 1008.1 |
| 20260507190055 | 22 | 198 | 1.6 | 11.3 | 0.00 | 1.45 | 0.66 | 79 | 1008.1 |
| 20260507185541 | 22 | 210 | 3.2 | 11.3 | 0.00 | 1.45 | 0.66 | 79 | 1008.1 |
| 20260507185044 | 22 | 275 | 3.2 | 8.0 | 0.00 | 1.45 | 0.66 | 84 | 1008.3 |
| 20260507184605 | 22 | 0 | 0.0 | 4.8 | 0.00 | 1.45 | 0.66 | 79 | 1008.3 |
| 20260507184043 | 22 | 0 | 0.0 | 4.8 | 0.00 | 1.45 | 0.66 | 82 | 1008.4 |
| 20260507183542 | 22 | 206 | 1.6 | 4.8 | 0.00 | 1.45 | 0.66 | 83 | 1008.2 |
| 20260507183055 | 22 | 0 | 1.6 | 4.8 | 0.00 | 1.45 | 0.66 | 81 | 1008.2 |
| 20260507182542 | 21 | 315 | 1.6 | 8.0 | 0.00 | 1.45 | 0.66 | 80 | 1008.3 |
| 20260507182042 | 21 | 0 | 1.6 | 9.7 | 0.00 | 1.45 | 0.66 | 87 | 1008.4 |
| 20260507181554 | 21 | 159 | 3.2 | 9.7 | 0.00 | 1.45 | 0.66 | 84 | 1008.5 |
| 20260507181043 | 21 | 0 | 3.2 | 8.0 | 0.00 | 1.45 | 0.66 | 82 | 1008.5 |
| 20260507180544 | 21 | 282 | 0.0 | 6.4 | 0.00 | 1.45 | 0.66 | 83 | 1008.8 |
| 20260507180057 | 21 | 0 | 0.0 | 6.4 | 0.00 | 1.45 | 0.66 | 85 | 1008.8 |
| 20260507175542 | 20 | 0 | 0.0 | 0.0 | 0.00 | 1.55 | 0.66 | 89 | 1008.8 |
| 20260507175045 | 20 | 0 | 0.0 | 0.0 | 0.00 | 1.55 | 0.66 | 93 | 1008.8 |
| 20260507174555 | 20 | 0 | 0.0 | 0.0 | 0.00 | 1.55 | 0.66 | 92 | 1008.6 |
| 20260507174044 | 20 | 0 | 0.0 | 0.0 | 0.00 | 1.55 | 0.66 | 92 | 1008.8 |
| 20260507173541 | 20 | 0 | 0.0 | 3.2 | 0.00 | 1.55 | 0.66 | 90 | 1008.9 |
| 20260507173055 | 20 | 0 | 0.0 | 6.4 | 0.00 | 1.55 | 0.66 | 89 | 1009.0 |
| 20260507172542 | 20 | 0 | 0.0 | 6.4 | 0.00 | 1.55 | 0.66 | 88 | 1009.2 |
| 20260507172044 | 20 | 332 | 0.0 | 6.4 | 0.00 | 1.55 | 0.66 | 89 | 1009.4 |
| 20260507171554 | 20 | 0 | 0.0 | 3.2 | 0.00 | 1.55 | 0.66 | 90 | 1009.5 |
| 20260507171044 | 20 | 0 | 0.0 | 0.0 | 0.00 | 1.55 | 0.66 | 88 | 1009.4 |
| 20260507170545 | 20 | 0 | 0.0 | 0.0 | 0.00 | 1.55 | 0.66 | 94 | 1009.4 |
| 20260507170052 | 20 | 0 | 0.0 | 0.0 | 0.00 | 1.55 | 0.66 | 92 | 1009.4 |
| 20260507165542 | 20 | 0 | 0.0 | 0.0 | 0.00 | 1.55 | 0.66 | 91 | 1009.5 |
| 20260507165045 | 20 | 0 | 0.0 | 0.0 | 0.00 | 1.55 | 0.66 | 93 | 1009.4 |
| 20260507164556 | 20 | 0 | 0.0 | 3.2 | 0.00 | 1.55 | 0.66 | 95 | 1009.4 |
| 20260507164042 | 19 | 0 | 0.0 | 3.2 | 0.00 | 1.55 | 0.66 | 96 | 1009.2 |
| 20260507163544 | 18 | 207 | 0.0 | 4.8 | 0.00 | 1.55 | 0.66 | 95 | 1009.3 |
| 20260507163107 | 18 | 0 | 0.0 | 4.8 | 0.00 | 1.55 | 0.66 | 95 | 1009.9 |
| 20260507162542 | 19 | 208 | 1.6 | 4.8 | 0.00 | 1.55 | 0.66 | 93 | 1009.9 |
| 20260507162041 | 19 | 0 | 1.6 | 4.8 | 0.00 | 1.55 | 0.66 | 92 | 1009.2 |
| 20260507161555 | 19 | 346 | 0.0 | 3.2 | 0.03 | 1.55 | 0.66 | 94 | 1008.9 |
| 20260507161043 | 19 | 324 | 0.0 | 4.8 | 0.03 | 1.55 | 0.66 | 95 | 1008.8 |
| 20260507160542 | 19 | 49 | 0.0 | 4.8 | 0.03 | 1.55 | 0.66 | 96 | 1009.0 |
| 20260507160052 | 18 | 0 | 0.0 | 4.8 | 0.03 | 1.55 | 0.66 | 95 | 1008.9 |
| 20260507155541 | 18 | 89 | 0.0 | 3.2 | 0.03 | 1.55 | 0.66 | 96 | 1009.1 |
| 20260507155041 | 18 | 338 | 0.0 | 3.2 | 0.03 | 1.55 | 0.66 | 96 | 1008.9 |
| 20260507154559 | 18 | 0 | 0.0 | 1.6 | 0.05 | 1.55 | 0.66 | 96 | 1008.8 |
| 20260507154044 | 18 | 0 | 0.0 | 0.0 | 0.05 | 1.55 | 0.66 | 97 | 1009.1 |
| 20260507153542 | 18 | 0 | 0.0 | 1.6 | 0.05 | 1.55 | 0.66 | 96 | 1009.2 |
| 20260507153054 | 18 | 0 | 0.0 | 1.6 | 0.05 | 1.55 | 0.66 | 96 | 1009.5 |
| 20260507152546 | 18 | 0 | 0.0 | 1.6 | 0.05 | 1.55 | 0.66 | 96 | 1009.5 |
| 20260507152045 | 18 | 0 | 0.0 | 0.0 | 0.05 | 1.55 | 0.66 | 96 | 1009.7 |
| 20260507151554 | 18 | 0 | 0.0 | 3.2 | 0.03 | 1.52 | 0.64 | 96 | 1009.8 |
| 20260507151045 | 18 | 0 | 0.0 | 3.2 | 0.03 | 1.52 | 0.64 | 96 | 1009.8 |
| 20260507150542 | 18 | 0 | 0.0 | 3.2 | 0.05 | 1.52 | 0.64 | 96 | 1010.0 |
| 20260507150057 | 18 | 0 | 0.0 | 9.7 | 0.05 | 1.52 | 0.64 | 96 | 1010.0 |
| 20260507145542 | 18 | 0 | 1.6 | 9.7 | 0.05 | 1.52 | 0.64 | 96 | 1010.4 |
| 20260507145043 | 18 | 0 | 0.0 | 4.8 | 0.05 | 1.52 | 0.64 | 96 | 1010.6 |
| 20260507144551 | 18 | 68 | 0.0 | 3.2 | 0.03 | 1.47 | 0.61 | 96 | 1010.8 |
| 20260507144045 | 18 | 0 | 0.0 | 3.2 | 0.03 | 1.47 | 0.61 | 96 | 1010.5 |
| 20260507143544 | 18 | 66 | 0.0 | 0.0 | 0.03 | 1.47 | 0.61 | 95 | 1010.1 |
| 20260507143101 | 18 | 0 | 0.0 | 0.0 | 0.03 | 1.47 | 0.61 | 96 | 1009.9 |
| 20260507142545 | 18 | 0 | 0.0 | 0.0 | 0.03 | 1.47 | 0.61 | 96 | 1009.9 |
| 20260507142044 | 18 | 0 | 0.0 | 0.0 | 0.03 | 1.47 | 0.61 | 95 | 1009.7 |
| 20260507141552 | 18 | 0 | 0.0 | 0.0 | 0.05 | 1.47 | 0.61 | 96 | 1009.8 |
| 20260507141041 | 18 | 0 | 0.0 | 0.0 | 0.05 | 1.47 | 0.61 | 97 | 1009.8 |
| 20260507140542 | 18 | 0 | 0.0 | 0.0 | 0.05 | 1.47 | 0.58 | 97 | 1009.8 |
| 20260507140053 | 18 | 0 | 0.0 | 0.0 | 0.05 | 1.47 | 0.58 | 97 | 1009.7 |
| 20260507135548 | 18 | 0 | 0.0 | 0.0 | 0.05 | 1.47 | 0.58 | 97 | 1009.9 |
| 20260507135043 | 17 | 0 | 0.0 | 0.0 | 0.08 | 1.47 | 0.58 | 97 | 1009.9 |
| 20260507134550 | 17 | 0 | 0.0 | 0.0 | 0.08 | 1.47 | 0.58 | 97 | 1009.6 |
| 20260507134041 | 17 | 0 | 0.0 | 0.0 | 0.10 | 1.47 | 0.58 | 97 | 1009.6 |
| 20260507133542 | 17 | 0 | 0.0 | 0.0 | 0.10 | 1.47 | 0.58 | 97 | 1009.3 |
| 20260507133051 | 17 | 0 | 0.0 | 0.0 | 0.13 | 1.47 | 0.58 | 97 | 1009.4 |
| 20260507132541 | 17 | 0 | 0.0 | 0.0 | 0.15 | 1.47 | 0.58 | 98 | 1009.5 |
| 20260507132042 | 17 | 0 | 0.0 | 0.0 | 0.18 | 1.47 | 0.58 | 98 | 1009.4 |
| 20260507131610 | 17 | 0 | 0.0 | 0.0 | 0.15 | 1.45 | 0.56 | 98 | 1009.6 |
| 20260507131045 | 17 | 0 | 0.0 | 1.6 | 0.18 | 1.45 | 0.56 | 98 | 1009.7 |
| 20260507130545 | 17 | 0 | 0.0 | 3.2 | 0.15 | 1.42 | 0.53 | 98 | 1010.0 |
| 20260507130055 | 17 | 0 | 0.0 | 3.2 | 0.15 | 1.42 | 0.53 | 98 | 1010.2 |
| 20260507125541 | 17 | 0 | 0.0 | 6.4 | 0.15 | 1.42 | 0.53 | 98 | 1010.2 |
| 20260507125042 | 17 | 0 | 0.0 | 6.4 | 0.13 | 1.40 | 0.51 | 98 | 1010.3 |
| 20260507124547 | 17 | 24 | 0.0 | 4.8 | 0.13 | 1.40 | 0.51 | 98 | 1010.6 |
| 20260507124041 | 17 | 0 | 0.0 | 6.4 | 0.10 | 1.37 | 0.48 | 98 | 1010.8 |
| 20260507123544 | 17 | 0 | 0.0 | 6.4 | 0.10 | 1.37 | 0.48 | 98 | 1011.1 |
| 20260507123051 | 17 | 0 | 1.6 | 6.4 | 0.10 | 1.32 | 0.46 | 97 | 1011.2 |
| 20260507122541 | 17 | 0 | 0.0 | 3.2 | 0.08 | 1.32 | 0.43 | 98 | 1011.5 |
| 20260507122042 | 17 | 45 | 0.0 | 3.2 | 0.08 | 1.30 | 0.41 | 98 | 1011.4 |
| 20260507121549 | 17 | 45 | 0.0 | 3.2 | 0.08 | 1.30 | 0.41 | 98 | 1011.1 |
| 20260507121044 | 17 | 0 | 0.0 | 3.2 | 0.05 | 1.27 | 0.38 | 98 | 1010.7 |
| 20260507120543 | 17 | 0 | 0.0 | 1.6 | 0.05 | 1.27 | 0.38 | 98 | 1010.5 |
| 20260507120054 | 17 | 0 | 0.0 | 1.6 | 0.05 | 1.27 | 0.38 | 98 | 1010.4 |
| 20260507115542 | 17 | 0 | 0.0 | 1.6 | 0.05 | 1.27 | 0.38 | 98 | 1010.5 |
| 20260507115042 | 17 | 0 | 0.0 | 0.0 | 0.05 | 1.27 | 0.38 | 98 | 1010.4 |
| 20260507114549 | 17 | 0 | 0.0 | 3.2 | 0.05 | 1.27 | 0.38 | 98 | 1010.4 |
| 20260507114041 | 17 | 0 | 0.0 | 3.2 | 0.05 | 1.27 | 0.38 | 98 | 1010.5 |
| 20260507113541 | 17 | 0 | 0.0 | 1.6 | 0.05 | 1.27 | 0.38 | 97 | 1010.1 |
| 20260507113053 | 17 | 0 | 0.0 | 1.6 | 0.03 | 1.24 | 0.36 | 97 | 1010.2 |
| 20260507112542 | 17 | 0 | 0.0 | 1.6 | 0.03 | 1.24 | 0.36 | 97 | 1010.3 |
| 20260507112043 | 17 | 0 | 0.0 | 0.0 | 0.00 | 1.22 | 0.33 | 97 | 1010.6 |
| 20260507111549 | 17 | 0 | 0.0 | 1.6 | 0.00 | 1.22 | 0.33 | 97 | 1010.4 |
| 20260507111041 | 17 | 0 | 0.0 | 3.2 | 0.00 | 1.22 | 0.33 | 97 | 1009.8 |
| 20260507110543 | 17 | 48 | 0.0 | 3.2 | 0.00 | 1.22 | 0.33 | 97 | 1009.8 |